• In Moldova, Republic
  • List of Countries
  • For 7 days
  • Water Temperature
  • Satellite Maps
  • Weather Map
  • Weather Widgets
  • user-avatar
    Login

    Hourly Weather Melbourne

    Today, 23 January, Monday

    Time Temperature Precipitation Wind Pressure Humidity
    00:00 +20°C° 0 mm 1 mps 755 mmHg 70%
    01:00 +21°C° 0 mm 1 mps 755 mmHg 64%
    02:00 +21°C° 0 mm 1 mps 754 mmHg 61%
    03:00 +22°C° 0 mm 1 mps 754 mmHg 58%
    04:00 +23°C° 0 mm 2 mps 753 mmHg 52%
    05:00 +24°C° 0 mm 2 mps 753 mmHg 50%
    06:00 +24°C° 0 mm 2 mps 753 mmHg 48%
    07:00 +25°C° 0 mm 2 mps 753 mmHg 46%
    08:00 +27°C° 0 mm 2 mps 753 mmHg 42%
    09:00 +29°C° 0 mm 2 mps 753 mmHg 38%
    10:00 +34°C° 0 mm 3 mps 753 mmHg 30%
    11:00 +35°C° 0 mm 3 mps 752 mmHg 29%
    12:00 +36°C° 0 mm 3 mps 752 mmHg 28%
    13:00 +36°C° 0 mm 3 mps 751 mmHg 26%
    14:00 +37°C° 0 mm 3 mps 750 mmHg 24%
    15:00 +38°C° 0 mm 2 mps 750 mmHg 22%
    16:00 +39°C° 0 mm 2 mps 749 mmHg 20%
    17:00 +37°C° 0 mm 3 mps 749 mmHg 27%
    18:00 +34°C° 0 mm 3 mps 749 mmHg 33%
    19:00 +32°C° 0 mm 4 mps 749 mmHg 39%
    20:00 +28°C° 0.1 mm 3 mps 750 mmHg 52%
    21:00 +25°C° 0.1 mm 2 mps 750 mmHg 65%
    22:00 +23°C° 0.1 mm 1 mps 751 mmHg 77%
    23:00 +22°C° 0.2 mm 1 mps 751 mmHg 81%

    Tomorrow, 24 January, Tuesday

    Time Temperature Precipitation Wind Pressure Humidity
    00:00 +22°C° 0.2 mm 1 mps 751 mmHg 85%
    01:00 +22°C° 0.2 mm 1 mps 751 mmHg 88%
    02:00 +21°C° 0.1 mm 2 mps 752 mmHg 88%
    03:00 +21°C° 0.1 mm 2 mps 752 mmHg 89%
    04:00 +21°C° 0.1 mm 3 mps 752 mmHg 89%
    05:00 +20°C° 0 mm 3 mps 754 mmHg 86%
    06:00 +20°C° 0 mm 4 mps 755 mmHg 83%
    07:00 +20°C° 0 mm 4 mps 756 mmHg 80%
    08:00 +20°C° 0.1 mm 4 mps 757 mmHg 73%
    09:00 +20°C° 0.1 mm 4 mps 757 mmHg 67%
    10:00 +21°C° 0.1 mm 4 mps 758 mmHg 61%
    11:00 +21°C° 0 mm 4 mps 758 mmHg 56%
    12:00 +22°C° 0 mm 4 mps 759 mmHg 50%
    13:00 +23°C° 0 mm 4 mps 759 mmHg 45%
    14:00 +23°C° 0 mm 4 mps 759 mmHg 46%
    15:00 +23°C° 0 mm 4 mps 760 mmHg 46%
    16:00 +22°C° 0 mm 4 mps 760 mmHg 47%
    17:00 +21°C° 0 mm 4 mps 761 mmHg 51%
    18:00 +20°C° 0 mm 4 mps 761 mmHg 55%
    19:00 +19°C° 0 mm 4 mps 762 mmHg 59%
    20:00 +18°C° 0 mm 3 mps 763 mmHg 64%
    21:00 +16°C° 0 mm 3 mps 763 mmHg 69%
    22:00 +15°C° 0 mm 2 mps 764 mmHg 73%
    23:00 +15°C° 0 mm 2 mps 764 mmHg 75%

    Day after tomorrow, 25 January, Wednesday

    Time Temperature Precipitation Wind Pressure Humidity
    00:00 +14°C° 0 mm 2 mps 764 mmHg 77%
    01:00 +14°C° 0 mm 2 mps 764 mmHg 79%
    02:00 +13°C° 0 mm 2 mps 763 mmHg 81%
    03:00 +13°C° 0 mm 2 mps 763 mmHg 83%
    04:00 +13°C° 0 mm 1 mps 763 mmHg 85%
    05:00 +13°C° 0 mm 2 mps 764 mmHg 81%
    06:00 +14°C° 0 mm 2 mps 764 mmHg 77%
    07:00 +15°C° 0 mm 2 mps 764 mmHg 73%
    08:00 +17°C° 0 mm 2 mps 764 mmHg 64%
    09:00 +19°C° 0 mm 2 mps 764 mmHg 55%
    10:00 +21°C° 0 mm 2 mps 763 mmHg 47%
    11:00 +23°C° 0 mm 2 mps 763 mmHg 42%
    12:00 +25°C° 0 mm 2 mps 762 mmHg 38%
    13:00 +26°C° 0 mm 2 mps 762 mmHg 34%
    14:00 +26°C° 0 mm 3 mps 762 mmHg 35%
    15:00 +26°C° 0 mm 3 mps 761 mmHg 36%
    16:00 +26°C° 0 mm 3 mps 761 mmHg 37%
    17:00 +24°C° 0 mm 3 mps 761 mmHg 44%
    18:00 +21°C° 0 mm 3 mps 761 mmHg 51%
    19:00 +19°C° 0 mm 3 mps 762 mmHg 58%
    20:00 +18°C° 0 mm 3 mps 762 mmHg 66%
    21:00 +16°C° 0 mm 2 mps 762 mmHg 75%
    22:00 +15°C° 0 mm 2 mps 763 mmHg 83%
    23:00 +14°C° 0 mm 2 mps 763 mmHg 85%

    26 January, Thursday

    Time Temperature Precipitation Wind Pressure Humidity
    00:00 +14°C° 0 mm 1 mps 762 mmHg 88%
    01:00 +13°C° 0 mm 1 mps 762 mmHg 90%
    02:00 +13°C° 0 mm 1 mps 762 mmHg 91%
    03:00 +13°C° 0 mm 1 mps 762 mmHg 92%
    04:00 +12°C° 0 mm 1 mps 762 mmHg 94%
    05:00 +13°C° 0 mm 1 mps 762 mmHg 90%
    06:00 +15°C° 0 mm 1 mps 762 mmHg 87%
    07:00 +16°C° 0 mm 1 mps 762 mmHg 83%
    08:00 +17°C° 0 mm 2 mps 762 mmHg 76%
    09:00 +19°C° 0 mm 2 mps 763 mmHg 69%
    10:00 +20°C° 0 mm 2 mps 763 mmHg 62%
    11:00 +23°C° 0 mm 2 mps 762 mmHg 57%
    12:00 +24°C° 0 mm 2 mps 762 mmHg 52%
    13:00 +26°C° 0 mm 2 mps 761 mmHg 47%
    14:00 +26°C° 0 mm 3 mps 761 mmHg 47%
    15:00 +26°C° 0 mm 3 mps 761 mmHg 47%
    16:00 +26°C° 0 mm 3 mps 760 mmHg 47%
    17:00 +24°C° 0 mm 3 mps 760 mmHg 54%
    18:00 +22°C° 0 mm 3 mps 761 mmHg 61%
    19:00 +20°C° 0 mm 3 mps 761 mmHg 68%
    20:00 +19°C° 0 mm 2 mps 761 mmHg 75%
    21:00 +17°C° 0 mm 2 mps 762 mmHg 83%
    22:00 +16°C° 0 mm 2 mps 762 mmHg 91%
    23:00 +15°C° 0 mm 2 mps 762 mmHg 91%

    27 January, Friday

    Time Temperature Precipitation Wind Pressure Humidity
    00:00 +15°C° 0 mm 1 mps 761 mmHg 91%
    01:00 +15°C° 0 mm 1 mps 761 mmHg 91%
    02:00 +15°C° 0 mm 1 mps 761 mmHg 92%
    03:00 +14°C° 0 mm 1 mps 761 mmHg 93%
    04:00 +14°C° 0 mm 1 mps 760 mmHg 94%
    05:00 +15°C° 0 mm 1 mps 761 mmHg 91%
    06:00 +16°C° 0 mm 1 mps 761 mmHg 88%
    07:00 +15°C° 0 mm 0 mps 761 mmHg 85%
    08:00 +20°C° 0 mm 1 mps 761 mmHg 72%
    09:00 +23°C° 0 mm 1 mps 761 mmHg 60%
    10:00 +25°C° 0 mm 1 mps 760 mmHg 48%
    11:00 +27°C° 0 mm 1 mps 760 mmHg 43%
    12:00 +29°C° 0 mm 1 mps 759 mmHg 38%
    13:00 +31°C° 0 mm 2 mps 758 mmHg 33%
    14:00 +31°C° 0 mm 2 mps 758 mmHg 32%
    15:00 +31°C° 0 mm 2 mps 757 mmHg 32%
    16:00 +31°C° 0 mm 2 mps 757 mmHg 32%
    17:00 +29°C° 0 mm 2 mps 757 mmHg 39%
    18:00 +27°C° 0 mm 2 mps 757 mmHg 47%
    19:00 +25°C° 0 mm 2 mps 757 mmHg 54%
    20:00 +23°C° 0 mm 2 mps 757 mmHg 64%
    21:00 +20°C° 0 mm 2 mps 758 mmHg 74%
    22:00 +18°C° 0 mm 1 mps 758 mmHg 84%
    23:00 +16°C° 0 mm 1 mps 758 mmHg 88%

    28 January, Saturday

    Time Temperature Precipitation Wind Pressure Humidity
    00:00 +16°C° 0 mm 1 mps 757 mmHg 91%
    01:00 +14°C° 0 mm 0 mps 757 mmHg 95%
    02:00 +14°C° 0 mm 1 mps 757 mmHg 95%
    03:00 +14°C° 0 mm 1 mps 757 mmHg 95%
    04:00 +13°C° 0 mm 1 mps 757 mmHg 96%
    05:00 +16°C° 0 mm 1 mps 757 mmHg 86%
    06:00 +19°C° 0 mm 1 mps 758 mmHg 77%
    07:00 +21°C° 0 mm 1 mps 758 mmHg 67%
    08:00 +23°C° 0 mm 1 mps 758 mmHg 57%
    09:00 +25°C° 0 mm 2 mps 759 mmHg 47%
    10:00 +27°C° 0 mm 2 mps 759 mmHg 37%
    11:00 +28°C° 0 mm 2 mps 759 mmHg 33%
    12:00 +29°C° 0 mm 2 mps 758 mmHg 29%
    13:00 +30°C° 0 mm 3 mps 758 mmHg 25%
    14:00 +30°C° 0 mm 3 mps 758 mmHg 29%
    15:00 +29°C° 0 mm 4 mps 758 mmHg 33%
    16:00 +29°C° 0 mm 4 mps 758 mmHg 37%
    17:00 +26°C° 0 mm 4 mps 759 mmHg 48%
    18:00 +23°C° 0 mm 4 mps 759 mmHg 60%
    19:00 +21°C° 0 mm 3 mps 760 mmHg 71%
    20:00 +20°C° 0 mm 3 mps 760 mmHg 76%
    21:00 +19°C° 0 mm 3 mps 761 mmHg 80%
    22:00 +18°C° 0 mm 2 mps 761 mmHg 85%
    23:00 +17°C° 0 mm 2 mps 761 mmHg 86%
    Show more